| time (UTC) | temp C | wind direction | speed KPH | gust KPH | rain 1hr cm | rain 24hr cm | rain mn cm | humidity % | barometer mb |
| 20260506011628 | 16 | 232 | 6.4 | 14.5 | 0.00 | 0.00 | 0.00 | 21 | 1011.7 |
| 20260506011125 | 16 | 281 | 6.4 | 16.1 | 0.00 | 0.00 | 0.00 | 21 | 1011.7 |
| 20260506010123 | 16 | 218 | 9.7 | 22.5 | 0.00 | 0.00 | 0.00 | 22 | 1011.6 |
| 20260506005626 | 16 | 287 | 8.0 | 22.5 | 0.00 | 0.00 | 0.00 | 21 | 1011.6 |
| 20260506005125 | 17 | 236 | 4.8 | 12.9 | 0.00 | 0.00 | 0.00 | 20 | 1011.5 |
| 20260506004625 | 17 | 236 | 6.4 | 16.1 | 0.00 | 0.00 | 0.00 | 20 | 1011.3 |
| 20260506003106 | 16 | 290 | 8.0 | 20.9 | 0.00 | 0.00 | 0.00 | 20 | 1011.2 |
| 20260506002107 | 16 | 235 | 9.7 | 20.9 | 0.00 | 0.00 | 0.00 | 21 | 1011.2 |
| 20260506001604 | 16 | 252 | 6.4 | 20.9 | 0.00 | 0.00 | 0.00 | 22 | 1011.1 |
| 20260506001104 | 16 | 274 | 8.0 | 20.9 | 0.00 | 0.00 | 0.00 | 22 | 1011.0 |
| 20260506000606 | 16 | 301 | 9.7 | 22.5 | 0.00 | 0.00 | 0.00 | 22 | 1011.0 |
| 20260506000100 | 16 | 245 | 8.0 | 22.5 | 0.00 | 0.00 | 0.00 | 21 | 1011.1 |
| 20260505235559 | 17 | 286 | 6.4 | 20.9 | 0.00 | 0.00 | 0.00 | 19 | 1011.1 |
| 20260505235100 | 17 | 185 | 8.0 | 20.9 | 0.00 | 0.00 | 0.00 | 19 | 1011.0 |
| 20260505234600 | 17 | 197 | 8.0 | 20.9 | 0.00 | 0.00 | 0.00 | 20 | 1010.9 |
| 20260505233559 | 16 | 255 | 6.4 | 25.7 | 0.00 | 0.00 | 0.00 | 20 | 1010.9 |
| 20260505233057 | 17 | 216 | 6.4 | 19.3 | 0.00 | 0.00 | 0.00 | 19 | 1010.9 |
| 20260505232557 | 17 | 241 | 8.0 | 33.8 | 0.00 | 0.00 | 0.00 | 19 | 1010.9 |
| 20260505232057 | 17 | 309 | 9.7 | 33.8 | 0.00 | 0.00 | 0.00 | 20 | 1010.9 |
| 20260505231556 | 17 | 231 | 6.4 | 19.3 | 0.00 | 0.00 | 0.00 | 20 | 1010.8 |
| 20260505230056 | 17 | 272 | 8.0 | 24.1 | 0.00 | 0.00 | 0.00 | 21 | 1010.9 |
| 20260505225553 | 16 | 141 | 6.4 | 14.5 | 0.00 | 0.00 | 0.00 | 22 | 1011.0 |
| 20260505225058 | 16 | 259 | 9.7 | 25.7 | 0.00 | 0.00 | 0.00 | 21 | 1011.0 |
| 20260505224549 | 17 | 333 | 8.0 | 25.7 | 0.00 | 0.00 | 0.00 | 20 | 1011.0 |
| 20260505223553 | 16 | 264 | 6.4 | 17.7 | 0.00 | 0.00 | 0.00 | 21 | 1011.1 |
| 20260505223049 | 16 | 229 | 6.4 | 20.9 | 0.00 | 0.00 | 0.00 | 21 | 1011.0 |
| 20260505222548 | 17 | 217 | 9.7 | 20.9 | 0.00 | 0.00 | 0.00 | 21 | 1011.1 |
| 20260505222056 | 17 | 239 | 8.0 | 19.3 | 0.00 | 0.00 | 0.00 | 21 | 1011.0 |
| 20260505221547 | 16 | 190 | 8.0 | 20.9 | 0.00 | 0.00 | 0.00 | 23 | 1011.1 |
| 20260505220547 | 16 | 216 | 8.0 | 24.1 | 0.00 | 0.00 | 0.00 | 22 | 1011.3 |
| 20260505215546 | 16 | 274 | 6.4 | 17.7 | 0.00 | 0.00 | 0.00 | 22 | 1011.3 |
| 20260505215046 | 16 | 230 | 9.7 | 25.7 | 0.00 | 0.00 | 0.00 | 23 | 1011.3 |
| 20260505214043 | 16 | 215 | 6.4 | 24.1 | 0.00 | 0.00 | 0.00 | 22 | 1011.6 |
| 20260505213543 | 17 | 328 | 4.8 | 16.1 | 0.00 | 0.00 | 0.00 | 22 | 1011.7 |
| 20260505213043 | 16 | 203 | 4.8 | 17.7 | 0.00 | 0.00 | 0.00 | 22 | 1011.6 |
| 20260505212040 | 17 | 222 | 8.0 | 20.9 | 0.00 | 0.00 | 0.00 | 22 | 1011.8 |
| 20260505211532 | 17 | 207 | 8.0 | 17.7 | 0.00 | 0.00 | 0.00 | 22 | 1012.0 |
| 20260505211026 | 17 | 245 | 9.7 | 17.7 | 0.00 | 0.00 | 0.00 | 23 | 1012.0 |
| 20260505210521 | 17 | 181 | 6.4 | 17.7 | 0.00 | 0.00 | 0.00 | 23 | 1012.0 |
| 20260505210014 | 17 | 334 | 4.8 | 17.7 | 0.00 | 0.00 | 0.00 | 24 | 1012.0 |
| 20260505205002 | 16 | 228 | 6.4 | 16.1 | 0.00 | 0.00 | 0.00 | 25 | 1012.3 |
| 20260505204457 | 16 | 141 | 4.8 | 16.1 | 0.00 | 0.00 | 0.00 | 25 | 1012.1 |
| 20260505203444 | 15 | 160 | 1.6 | 12.9 | 0.00 | 0.00 | 0.00 | 27 | 1012.3 |
| 20260505202938 | 15 | 91 | 4.8 | 12.9 | 0.00 | 0.00 | 0.00 | 27 | 1012.0 |
| 20260505202432 | 16 | 140 | 4.8 | 19.3 | 0.00 | 0.00 | 0.00 | 27 | 1012.1 |
| 20260505201927 | 15 | 174 | 3.2 | 19.3 | 0.00 | 0.00 | 0.00 | 27 | 1012.3 |
| 20260505200917 | 15 | 228 | 4.8 | 11.3 | 0.00 | 0.00 | 0.00 | 29 | 1012.3 |
| 20260505200411 | 15 | 251 | 4.8 | 19.3 | 0.00 | 0.00 | 0.00 | 30 | 1012.4 |
| 20260505195356 | 15 | 294 | 4.8 | 19.3 | 0.00 | 0.00 | 0.00 | 31 | 1012.5 |
| 20260505194851 | 14 | 240 | 4.8 | 16.1 | 0.00 | 0.00 | 0.00 | 31 | 1012.4 |
| 20260505194344 | 14 | 179 | 4.8 | 14.5 | 0.00 | 0.00 | 0.00 | 32 | 1012.4 |
| 20260505193838 | 14 | 219 | 6.4 | 16.1 | 0.00 | 0.00 | 0.00 | 31 | 1012.5 |
| 20260505193332 | 15 | 255 | 4.8 | 16.1 | 0.00 | 0.00 | 0.00 | 31 | 1012.5 |
| 20260505192826 | 15 | 205 | 3.2 | 14.5 | 0.00 | 0.00 | 0.00 | 31 | 1012.5 |
| 20260505192320 | 14 | 282 | 4.8 | 12.9 | 0.00 | 0.00 | 0.00 | 32 | 1012.5 |
| 20260505191814 | 14 | 158 | 6.4 | 14.5 | 0.00 | 0.00 | 0.00 | 33 | 1012.6 |
| 20260505191308 | 13 | 231 | 6.4 | 14.5 | 0.00 | 0.00 | 0.00 | 33 | 1012.5 |
| 20260505190802 | 13 | 168 | 6.4 | 16.1 | 0.00 | 0.00 | 0.00 | 33 | 1012.5 |
| 20260505190256 | 14 | 247 | 4.8 | 16.1 | 0.00 | 0.00 | 0.00 | 33 | 1012.5 |
| 20260505185750 | 14 | 276 | 6.4 | 16.1 | 0.00 | 0.00 | 0.00 | 33 | 1012.5 |
| 20260505185244 | 14 | 210 | 4.8 | 16.1 | 0.00 | 0.00 | 0.00 | 33 | 1012.6 |
| 20260505184738 | 14 | 232 | 4.8 | 14.5 | 0.00 | 0.00 | 0.00 | 32 | 1012.6 |
| 20260505183727 | 13 | 281 | 4.8 | 11.3 | 0.00 | 0.00 | 0.00 | 33 | 1012.6 |
| 20260505183221 | 13 | 6 | 6.4 | 16.1 | 0.00 | 0.00 | 0.00 | 33 | 1012.5 |
| 20260505182717 | 13 | 238 | 6.4 | 17.7 | 0.00 | 0.00 | 0.00 | 32 | 1012.6 |
| 20260505182208 | 13 | 199 | 4.8 | 17.7 | 0.00 | 0.00 | 0.00 | 33 | 1012.5 |
| 20260505181156 | 13 | 198 | 3.2 | 14.5 | 0.00 | 0.00 | 0.00 | 33 | 1012.6 |
| 20260505180651 | 14 | 265 | 3.2 | 11.3 | 0.00 | 0.00 | 0.00 | 33 | 1012.5 |
| 20260505175639 | 13 | 226 | 4.8 | 19.3 | 0.00 | 0.00 | 0.00 | 33 | 1012.5 |
| 20260505175135 | 14 | 232 | 3.2 | 16.1 | 0.00 | 0.00 | 0.00 | 31 | 1012.6 |
| 20260505174627 | 15 | 223 | 4.8 | 14.5 | 0.00 | 0.00 | 0.00 | 31 | 1012.4 |
| 20260505174121 | 15 | 214 | 8.0 | 30.6 | 0.00 | 0.00 | 0.00 | 31 | 1012.5 |
| 20260505173615 | 15 | 182 | 6.4 | 30.6 | 0.00 | 0.00 | 0.00 | 30 | 1012.4 |
| 20260505173108 | 15 | 212 | 8.0 | 22.5 | 0.00 | 0.00 | 0.00 | 30 | 1012.3 |
| 20260505172612 | 15 | 205 | 9.7 | 25.7 | 0.00 | 0.00 | 0.00 | 29 | 1012.1 |
| 20260505171608 | 15 | 143 | 9.7 | 24.1 | 0.00 | 0.00 | 0.00 | 29 | 1012.3 |
| 20260505170606 | 15 | 198 | 9.7 | 27.4 | 0.00 | 0.00 | 0.00 | 31 | 1012.3 |
| 20260505170110 | 14 | 146 | 8.0 | 20.9 | 0.00 | 0.00 | 0.00 | 32 | 1012.1 |
| 20260505165107 | 15 | 124 | 8.0 | 25.7 | 0.00 | 0.00 | 0.00 | 32 | 1012.3 |
| 20260505164605 | 15 | 129 | 8.0 | 25.7 | 0.00 | 0.00 | 0.00 | 31 | 1012.3 |
| 20260505164111 | 14 | 122 | 9.7 | 24.1 | 0.00 | 0.00 | 0.00 | 31 | 1012.3 |
| 20260505163605 | 14 | 114 | 9.7 | 24.1 | 0.00 | 0.00 | 0.00 | 32 | 1012.3 |
| 20260505163109 | 14 | 205 | 9.7 | 29.0 | 0.00 | 0.00 | 0.00 | 31 | 1012.1 |
| 20260505162607 | 14 | 197 | 9.7 | 29.0 | 0.00 | 0.00 | 0.00 | 32 | 1012.1 |
| 20260505162106 | 14 | 137 | 11.3 | 25.7 | 0.00 | 0.00 | 0.00 | 32 | 1012.1 |
| 20260505161109 | 14 | 236 | 4.8 | 20.9 | 0.00 | 0.00 | 0.00 | 33 | 1012.1 |
| 20260505160600 | 14 | 236 | 4.8 | 20.9 | 0.00 | 0.00 | 0.00 | 32 | 1012.3 |
| 20260505153055 | 13 | 110 | 4.8 | 22.5 | 0.00 | 0.00 | 0.00 | 35 | 1012.3 |
| 20260505152552 | 13 | 107 | 8.0 | 22.5 | 0.00 | 0.00 | 0.00 | 36 | 1012.1 |
| 20260505152057 | 12 | 128 | 6.4 | 20.9 | 0.00 | 0.00 | 0.00 | 36 | 1012.0 |
| 20260505151554 | 13 | 94 | 6.4 | 19.3 | 0.00 | 0.00 | 0.00 | 36 | 1012.0 |
| 20260505151055 | 12 | 233 | 6.4 | 19.3 | 0.00 | 0.00 | 0.00 | 36 | 1012.1 |
| 20260505140549 | 11 | 121 | 3.2 | 12.9 | 0.00 | 0.00 | 0.00 | 41 | 1011.9 |
| 20260505124540 | 8 | 236 | 3.2 | 11.3 | 0.00 | 0.00 | 0.00 | 49 | 1011.7 |
| 20260505124038 | 8 | 144 | 3.2 | 11.3 | 0.00 | 0.00 | 0.00 | 49 | 1011.6 |
| 20260505123540 | 8 | 203 | 3.2 | 11.3 | 0.00 | 0.00 | 0.00 | 49 | 1011.5 |
| 20260505122034 | 8 | 187 | 4.8 | 14.5 | 0.00 | 0.00 | 0.00 | 49 | 1011.6 |
| 20260505121035 | 8 | 193 | 6.4 | 19.3 | 0.00 | 0.00 | 0.00 | 49 | 1011.5 |
| 20260505120539 | 8 | 201 | 6.4 | 19.3 | 0.00 | 0.00 | 0.00 | 49 | 1011.5 |
| 20260505115035 | 8 | 179 | 3.2 | 8.0 | 0.00 | 0.00 | 0.00 | 49 | 1011.8 |
| 20260505113540 | 8 | 217 | 1.6 | 9.7 | 0.00 | 0.00 | 0.00 | 49 | 1011.7 |
| 20260505113032 | 8 | 96 | 1.6 | 9.7 | 0.00 | 0.00 | 0.00 | 49 | 1011.8 |
| 20260505112020 | 8 | 178 | 3.2 | 8.0 | 0.00 | 0.00 | 0.00 | 48 | 1011.8 |
| 20260505111512 | 8 | 210 | 4.8 | 12.9 | 0.00 | 0.00 | 0.00 | 48 | 1011.8 |
| 20260505111009 | 8 | 194 | 4.8 | 12.9 | 0.00 | 0.00 | 0.00 | 48 | 1011.9 |
| 20260505110503 | 8 | 161 | 4.8 | 9.7 | 0.00 | 0.00 | 0.00 | 48 | 1011.9 |
| 20260505101915 | 8 | 88 | 3.2 | 14.5 | 0.00 | 0.00 | 0.00 | 47 | 1011.7 |
| 20260505101409 | 8 | 156 | 3.2 | 14.5 | 0.00 | 0.00 | 0.00 | 47 | 1011.7 |
| 20260505100905 | 8 | 154 | 3.2 | 11.3 | 0.00 | 0.00 | 0.00 | 46 | 1011.6 |
| 20260505100402 | 8 | 312 | 3.2 | 9.7 | 0.00 | 0.00 | 0.00 | 46 | 1011.7 |
| 20260505095846 | 8 | 103 | 3.2 | 9.7 | 0.00 | 0.00 | 0.00 | 46 | 1011.8 |
| 20260505095337 | 9 | 222 | 1.6 | 9.7 | 0.00 | 0.00 | 0.00 | 46 | 1011.8 |
| 20260505094831 | 9 | 228 | 1.6 | 11.3 | 0.00 | 0.00 | 0.00 | 45 | 1011.9 |
| 20260505094329 | 9 | 136 | 3.2 | 11.3 | 0.00 | 0.00 | 0.00 | 46 | 1011.9 |
| 20260505093822 | 9 | 101 | 3.2 | 12.9 | 0.00 | 0.00 | 0.00 | 45 | 1011.9 |
| 20260505093312 | 9 | 165 | 3.2 | 12.9 | 0.00 | 0.00 | 0.00 | 45 | 1011.9 |
| 20260505092810 | 9 | 218 | 3.2 | 9.7 | 0.00 | 0.00 | 0.00 | 45 | 1011.9 |
| 20260505092305 | 9 | 122 | 1.6 | 9.7 | 0.00 | 0.00 | 0.00 | 45 | 1011.9 |
| 20260505091755 | 9 | 238 | 1.6 | 11.3 | 0.00 | 0.00 | 0.00 | 44 | 1012.0 |
| 20260505090744 | 9 | 161 | 1.6 | 9.7 | 0.00 | 0.00 | 0.00 | 43 | 1012.1 |
| 20260505090237 | 9 | 226 | 1.6 | 8.0 | 0.00 | 0.00 | 0.00 | 42 | 1012.3 |
| 20260505085734 | 9 | 186 | 1.6 | 8.0 | 0.00 | 0.00 | 0.00 | 42 | 1012.5 |
| 20260505085227 | 9 | 163 | 3.2 | 11.3 | 0.00 | 0.00 | 0.00 | 41 | 1012.4 |
| 20260505084720 | 10 | 169 | 4.8 | 11.3 | 0.00 | 0.00 | 0.00 | 41 | 1012.4 |
| 20260505084213 | 10 | 193 | 3.2 | 9.7 | 0.00 | 0.00 | 0.00 | 41 | 1012.5 |
| 20260505083707 | 10 | 184 | 3.2 | 9.7 | 0.00 | 0.00 | 0.00 | 40 | 1012.5 |
| 20260505082656 | 10 | 116 | 3.2 | 11.3 | 0.00 | 0.00 | 0.00 | 40 | 1012.5 |
| 20260505082149 | 10 | 144 | 3.2 | 11.3 | 0.00 | 0.00 | 0.00 | 40 | 1012.6 |
| 20260505081643 | 10 | 127 | 3.2 | 9.7 | 0.00 | 0.00 | 0.00 | 40 | 1012.6 |
| 20260505081138 | 10 | 147 | 4.8 | 9.7 | 0.00 | 0.00 | 0.00 | 40 | 1012.6 |
| 20260505080633 | 10 | 238 | 4.8 | 12.9 | 0.00 | 0.00 | 0.00 | 40 | 1012.7 |
| 20260505080126 | 10 | 195 | 3.2 | 12.9 | 0.00 | 0.00 | 0.00 | 40 | 1012.8 |
| 20260505075113 | 10 | 200 | 4.8 | 14.5 | 0.00 | 0.00 | 0.00 | 39 | 1013.0 |
| 20260505074607 | 10 | 127 | 3.2 | 14.5 | 0.00 | 0.00 | 0.00 | 39 | 1012.9 |
| 20260505073049 | 10 | 236 | 3.2 | 12.9 | 0.00 | 0.00 | 0.00 | 38 | 1012.6 |
| 20260505072544 | 10 | 252 | 3.2 | 11.3 | 0.00 | 0.00 | 0.00 | 37 | 1012.6 |
| 20260505071531 | 11 | 141 | 6.4 | 16.1 | 0.00 | 0.00 | 0.00 | 36 | 1012.5 |
| 20260505071028 | 11 | 210 | 4.8 | 16.1 | 0.00 | 0.00 | 0.00 | 35 | 1012.6 |
| 20260505070519 | 11 | 131 | 6.4 | 19.3 | 0.00 | 0.00 | 0.00 | 34 | 1012.7 |
| 20260505070014 | 11 | 193 | 6.4 | 19.3 | 0.00 | 0.00 | 0.00 | 34 | 1012.9 |
| 20260505065001 | 11 | 210 | 8.0 | 19.3 | 0.00 | 0.00 | 0.00 | 33 | 1012.7 |
| 20260505064456 | 11 | 232 | 8.0 | 17.7 | 0.00 | 0.00 | 0.00 | 32 | 1012.6 |
| 20260505063446 | 11 | 183 | 4.8 | 19.3 | 0.00 | 0.00 | 0.00 | 33 | 1012.5 |
| 20260505062944 | 11 | 201 | 4.8 | 16.1 | 0.00 | 0.00 | 0.00 | 33 | 1012.5 |
| 20260505062443 | 11 | 216 | 3.2 | 14.5 | 0.00 | 0.00 | 0.00 | 32 | 1012.3 |
| 20260505061945 | 11 | 215 | 3.2 | 14.5 | 0.00 | 0.00 | 0.00 | 32 | 1012.3 |
| 20260505061445 | 11 | 166 | 1.6 | 8.0 | 0.00 | 0.00 | 0.00 | 31 | 1012.1 |
| 20260505060944 | 11 | 257 | 1.6 | 9.7 | 0.00 | 0.00 | 0.00 | 30 | 1012.3 |
| 20260505055944 | 11 | 156 | 4.8 | 14.5 | 0.00 | 0.00 | 0.00 | 29 | 1012.4 |
| 20260505055446 | 11 | 168 | 4.8 | 14.5 | 0.00 | 0.00 | 0.00 | 29 | 1012.5 |
| 20260505054944 | 11 | 191 | 3.2 | 11.3 | 0.00 | 0.00 | 0.00 | 28 | 1012.4 |
| 20260505054444 | 12 | 240 | 1.6 | 11.3 | 0.00 | 0.00 | 0.00 | 28 | 1012.5 |
| 20260505053946 | 12 | 203 | 3.2 | 11.3 | 0.00 | 0.00 | 0.00 | 27 | 1012.5 |
| 20260505053444 | 12 | 184 | 4.8 | 12.9 | 0.00 | 0.00 | 0.00 | 27 | 1012.5 |
| 20260505052944 | 12 | 141 | 4.8 | 12.9 | 0.00 | 0.00 | 0.00 | 27 | 1012.6 |
| 20260505051944 | 12 | 204 | 6.4 | 20.9 | 0.00 | 0.00 | 0.00 | 26 | 1012.6 |
| 20260505050946 | 13 | 161 | 11.3 | 32.2 | 0.00 | 0.00 | 0.00 | 24 | 1012.6 |
| 20260505050445 | 13 | 193 | 11.3 | 32.2 | 0.00 | 0.00 | 0.00 | 25 | 1012.6 |
| 20260505041446 | 13 | 62 | 9.7 | 24.1 | 0.00 | 0.00 | 0.00 | 18 | 1012.4 |
| 20260505040948 | 13 | 149 | 11.3 | 30.6 | 0.00 | 0.00 | 0.00 | 20 | 1012.5 |
| 20260505040444 | 13 | 186 | 12.9 | 30.6 | 0.00 | 0.00 | 0.00 | 17 | 1012.6 |
| 20260505035944 | 13 | 149 | 9.7 | 24.1 | 0.00 | 0.00 | 0.00 | 18 | 1012.6 |
| 20260505035444 | 13 | 199 | 9.7 | 24.1 | 0.00 | 0.00 | 0.00 | 18 | 1012.6 |
| 20260505034944 | 13 | 167 | 11.3 | 25.7 | 0.00 | 0.00 | 0.00 | 19 | 1012.5 |
| 20260505033440 | 14 | 204 | 9.7 | 20.9 | 0.00 | 0.00 | 0.00 | 19 | 1012.1 |
| 20260505032440 | 14 | 214 | 8.0 | 25.7 | 0.00 | 0.00 | 0.00 | 17 | 1012.3 |
| 20260505031942 | 14 | 242 | 11.3 | 29.0 | 0.00 | 0.00 | 0.00 | 15 | 1012.1 |
| 20260505031441 | 14 | 188 | 9.7 | 29.0 | 0.00 | 0.00 | 0.00 | 14 | 1011.9 |
| 20260505030940 | 14 | 233 | 8.0 | 24.1 | 0.00 | 0.00 | 0.00 | 13 | 1012.0 |
| 20260505030442 | 14 | 163 | 9.7 | 24.1 | 0.00 | 0.00 | 0.00 | 14 | 1011.9 |
| 20260505025941 | 14 | 165 | 9.7 | 22.5 | 0.00 | 0.00 | 0.00 | 15 | 1011.9 |
| 20260505025435 | 14 | 127 | 8.0 | 24.1 | 0.00 | 0.00 | 0.00 | 14 | 1011.9 |
| 20260505024936 | 14 | 203 | 4.8 | 24.1 | 0.00 | 0.00 | 0.00 | 14 | 1011.7 |
| 20260505024437 | 14 | 161 | 4.8 | 16.1 | 0.00 | 0.00 | 0.00 | 14 | 1011.8 |
| 20260505023437 | 14 | 139 | 6.4 | 12.9 | 0.00 | 0.00 | 0.00 | 16 | 1011.8 |
| 20260505022934 | 15 | 182 | 6.4 | 14.5 | 0.00 | 0.00 | 0.00 | 16 | 1011.7 |
| 20260505022435 | 15 | 193 | 8.0 | 22.5 | 0.00 | 0.00 | 0.00 | 16 | 1011.7 |
| 20260505021940 | 15 | 165 | 8.0 | 22.5 | 0.00 | 0.00 | 0.00 | 15 | 1011.7 |
| 20260505021435 | 15 | 210 | 4.8 | 17.7 | 0.00 | 0.00 | 0.00 | 16 | 1011.7 |
| 20260505020934 | 15 | 250 | 3.2 | 16.1 | 0.00 | 0.00 | 0.00 | 16 | 1011.6 |
| 20260505020429 | 15 | 236 | 3.2 | 12.9 | 0.00 | 0.00 | 0.00 | 15 | 1011.7 |
| 20260505015930 | 15 | 163 | 3.2 | 12.9 | 0.00 | 0.00 | 0.00 | 15 | 1011.7 |
| 20260505015425 | 15 | 152 | 4.8 | 14.5 | 0.00 | 0.00 | 0.00 | 15 | 1011.7 |
| 20260505014918 | 15 | 259 | 4.8 | 16.1 | 0.00 | 0.00 | 0.00 | 15 | 1011.8 |
| 20260505014417 | 15 | 103 | 6.4 | 16.1 | 0.00 | 0.00 | 0.00 | 14 | 1011.7 |
| 20260505013916 | 16 | 165 | 8.0 | 17.7 | 0.00 | 0.00 | 0.00 | 13 | 1011.7 |
| 20260505013416 | 16 | 203 | 8.0 | 17.7 | 0.00 | 0.00 | 0.00 | 13 | 1011.6 |
| 20260505012417 | 16 | 229 | 8.0 | 25.7 | 0.00 | 0.00 | 0.00 | 11 | 1011.6 |